Regional Weather Roundup
Issued by NWS

Home | Current Version | Previous Version | Text Only | Print | Product List | Glossary On
Versions: 1 2 3 4 5 6 7 8 9 10 11 12 13 14 15 16 17 18 19 20 21 22 23 24 25 26 27 28 29 30 31 32 33 34 35 36 37 38 39 40 41 42 43 44 45 46 47 48 49 50
000
ASUS45 KREV 311610
RWRNV
NEVADA REGIONAL WEATHER ROUNDUP
NATIONAL WEATHER SERVICE RENO NV
900 AM PDT FRI JUL 31 2015

NOTE: "FAIR" INDICATES FEW OR NO CLOUDS BELOW 12,000 FEET WITH NO
SIGNIFICANT WEATHER AND/OR OBSTRUCTIONS TO VISIBILITY.

NVZ001-003-004-311700-
WESTERN NEVADA

CITY           SKY/WX    TMP DP  RH WIND       PRES   REMARKS
RENO           PTSUNNY   79  40  24 VRB3      30.24R
CARSON CITY    FAIR      73  39  29 N7        30.27S
MINDEN         FAIR      72  41  33 NE7       30.25F
SLIDE MTN        N/A     63  36  36 E10         N/A
PYRAMID LAKE     N/A     82 N/A N/A NE2         N/A
FALLON         CLOUDY    82  39  21 CALM      30.19S
LOVELOCK       PTSUNNY   79  30  16 NE6       30.20R
HAWTHORNE      SUNNY     79  43  27 CALM      30.22S
$$

NVZ002-CAZ072-073-311700-
NORTHERN AND CENTRAL SIERRA

CITY           SKY/WX    TMP DP  RH WIND       PRES   REMARKS
S. LAKE TAHOE  CLOUDY    72  44  36 CALM      30.37S
SQUAW VLY 8000   N/A     64  37  36 SW6         N/A
SUSANVILLE     SUNNY     75  39  27 CALM      30.22S
BLUE CANYON    CLOUDY    74  41  30 CALM      30.32R
MAMMOTH LAKES  FAIR      63  48  59 E3        30.46S
BRIDGEPORT     PTSUNNY   65  40  39 CALM      30.40R
$$

NVZ030-031-036-311700-
NORTHERN NEVADA

CITY           SKY/WX    TMP DP  RH WIND       PRES   REMARKS
ELKO           PTSUNNY   68  28  22 CALM      30.32F
WINNEMUCCA     NOT AVBL
WENDOVER       SUNNY     81  28  15 SE3       30.25S
$$

NVZ035-037-311700-
CENTRAL NEVADA

CITY           SKY/WX    TMP DP  RH WIND       PRES   REMARKS
ELY            MOSUNNY   74  22  14 N3        30.39S
EUREKA           N/A     75  26  16 NE3       30.35S
$$

NVZ013-014-311700-
SOUTH CENTRAL NEVADA

CITY           SKY/WX    TMP DP  RH WIND       PRES   REMARKS
TONOPAH        CLOUDY    75  36  24 N14       30.31F
$$

NVZ017-020-022-311700-
SOUTHERN NEVADA

CITY           SKY/WX    TMP DP  RH WIND       PRES   REMARKS
LAS VEGAS      PTSUNNY   92  54  27 SE3       30.01S
N. LAS VEGAS   PTSUNNY   92  53  26 SE5       30.04S
NELLIS AFB     MOSUNNY   93  55  27 E7        30.02S
HENDERSON      MOSUNNY   92  54  27 NE3       30.09S
MERCURY        PTSUNNY   87  52  29 VRB3      30.13R
$$


USA.gov is the U.S. government's official web portal to all federal, state and local government web resources and services.